Location: *
(34.6780°N, 135.8310°E)
Time: 06:55:10
(UTC+00:00)

Cosmos 1892 Rocket - Pass Details

Date: 18 October 2019
Orbit: 605 x 634 km, 82.5° (Epoch: 10 November)

Event Time Altitude Azimuth Distance (km) Brightness Sun altitude
Rises 19:39:14 0° 179° (S) 2,905 7.0 -18.4°
Reaches altitude 10° 19:41:28 10° 176° (S) 1,999 6.2 -17.9°
Maximum altitude 19:45:51 66° 95° (E) 685 4.0 -17.0°
Drops below altitude 10° 19:50:14 10° 13° (NNE) 1,995 6.3 -16.1°
Sets 19:52:29 0° 11° (N) 2,900 7.1 -15.6°
